Other Surface Observations
Issued by NWS Upton, NY

Current Version | Previous Version | Text Only | Print | Product List | Glossary Off
Versions: 1 2 3 4 5 6 7 8 9 10 11 12 13 14 15 16 17 18 19 20 21 22 23 24 25 26 27 28 29 30 31 32 33 34 35 36 37 38 39 40 41 42 43 44 45 46 47 48 49 50

000
SXUS51 KOKX 181957
OSOOKX
New York City Metropolitan Area Weather Roundup
National Weather Service New York NY
400 PM EDT MON OCT 18 2021

CITY           SKY/WX    TMP DP  RH WIND       PRES   REMARKS
Central Park   PTSUNNY   58  34  40 NW9G23    29.86R
LaGuardia Arpt PTSUNNY   60  37  42 NW18G33   29.83R
Kennedy Intl   PTSUNNY   59  37  44 NW20G31   29.83R
Newark Liberty PTSUNNY   61  32  33 NW22G33   29.84R
Teterboro Arpt MOSUNNY   58  36  43 NW18G28   29.83R
Bronx Lehman C   N/A     57  37  47 NW18G33     N/A
Queens College   N/A     57  37  47 N14G26      N/A
Breezy Point     N/A     59 N/A N/A NW14G24     N/A
Brooklyn Coll    N/A     59  34  38 W18G30      N/A
Staten Island    N/A     59  34  38 NW15        N/A

>>>>>>>>>>>>>>>>>>>>>>>>>>>>>>>>> KEY <<<<<<<<<<<<<<<<<<<<<<<<<<<<<<<
> SKY/WX - Sky Condition/Present    : R : WCI - Wind Chill Index    <
>          Weather                  : E : VSB - Visibility in Miles <
> TMP    - Temperature in Deg F     : M : HX  - Heat Index          <
> DP     - Dew Point Temperature    : A : TC  - Temperature in      <
> RH     - Relative Humidity        : R :       Celsius             <
> WIND   - Direction/Speed (mph)    : K : VRB - Variable Wind Dir   <
> PRES   - Pressure (in Hg)         : S :                           <
>>>>>>>>>>>>>>>>>>>>>>>>>>>>>>>>> KEY <<<<<<<<<<<<<<<<<<<<<<<<<<<<<<<



USA.gov is the U.S. government's official web portal to all federal, state and local government web resources and services.